LRBM Weather Reports


time (UTC)temp
C
wind
direction
speed
KPH
gust
KPH
rain 1hr
cm
rain 24hr
cm
rain mn
cm
humidity
%
barometer
mb
20260906023336 12 3.2 0.0 0.00 0.00 0.00 94 1020.0
20260906021842 12 90 4.8 0.0 0.00 0.00 0.00 94 1020.0
20260906020337 12 90 4.8 0.0 0.00 0.00 0.00 94 1020.0
20260906014837 12 3.2 0.0 0.00 0.00 0.00 94 1020.0
20260906013455 12 3.2 0.0 0.00 0.00 0.00 94 1020.0
20260906011835 12 80 8.0 0.0 0.00 0.00 0.00 94 1020.0
20260906010335 12 80 8.0 0.0 0.00 0.00 0.00 94 1020.0
20260906004954 12 70 4.8 0.0 0.00 0.00 0.00 94 1019.0
20260906003504 12 70 4.8 0.0 0.00 0.00 0.00 94 1019.0
20260906001954 12 3.2 0.0 0.00 0.00 0.00 94 1019.0
20260906000444 12 3.2 0.0 0.00 0.00 0.00 94 1019.0
20260905234846 12 60 4.8 0.0 0.00 0.00 0.00 94 1019.0
20260905233335 12 60 4.8 0.0 0.00 0.00 0.00 94 1019.0
20260905231955 13 50 8.0 0.0 0.00 0.00 0.00 88 1019.0
20260905230407 13 50 8.0 0.0 0.00 0.00 0.00 88 1019.0
20260905224955 13 70 8.0 0.0 0.00 0.00 0.00 88 1019.0
20260905223349 13 70 8.0 0.0 0.00 0.00 0.00 88 1019.0
20260905221939 12 0 0.0 0.0 0.00 0.00 0.00 94 1019.0
20260905220454 12 0 0.0 0.0 0.00 0.00 0.00 94 1019.0
20260905214953 15 1.6 0.0 0.00 0.00 0.00 82 1019.0
20260905213336 15 1.6 0.0 0.00 0.00 0.00 82 1019.0
20260905211835 13 0 0.0 0.0 0.00 0.00 0.00 88 1019.0
20260905210335 13 0 0.0 0.0 0.00 0.00 0.00 88 1019.0
20260905204846 16 3.2 0.0 0.00 0.00 0.00 77 1019.0
20260905203335 16 3.2 0.0 0.00 0.00 0.00 77 1019.0
20260905201835 17 350 3.2 0.0 0.00 0.00 0.00 73 1018.0
20260905200454 17 350 3.2 0.0 0.00 0.00 0.00 73 1018.0
20260905194945 16 3.2 0.0 0.00 0.00 0.00 83 1018.0
20260905193336 16 3.2 0.0 0.00 0.00 0.00 83 1018.0
20260905191904 17 330 4.8 0.0 0.00 0.00 0.00 73 1018.0
20260905190336 17 330 4.8 0.0 0.00 0.00 0.00 73 1018.0
20260905184833 18 3.2 0.0 0.00 0.00 0.00 68 1017.0
20260905183341 18 3.2 0.0 0.00 0.00 0.00 68 1017.0
20260905181832 20 350 8.0 0.0 0.00 0.00 0.00 64 1017.0
20260905180332 20 350 8.0 0.0 0.00 0.00 0.00 64 1017.0
20260905174832 18 3.2 0.0 0.00 0.00 0.00 73 1017.0
20260905173335 18 3.2 0.0 0.00 0.00 0.00 73 1017.0
20260905171843 21 290 4.8 0.0 0.00 0.00 0.00 64 1017.0
20260905170336 21 290 4.8 0.0 0.00 0.00 0.00 64 1017.0
20260905164835 21 280 8.0 0.0 0.00 0.00 0.00 64 1017.0
20260905163337 21 280 8.0 0.0 0.00 0.00 0.00 64 1017.0
20260905161833 22 270 8.0 0.0 0.00 0.00 0.00 61 1016.0
20260905160336 22 270 8.0 0.0 0.00 0.00 0.00 61 1016.0
20260905154849 22 270 9.7 0.0 0.00 0.00 0.00 57 1016.0
20260905153335 22 270 9.7 0.0 0.00 0.00 0.00 57 1016.0
20260905151836 23 280 12.9 0.0 0.00 0.00 0.00 54 1016.0
20260905150336 23 280 12.9 0.0 0.00 0.00 0.00 54 1016.0
20260905144832 23 230 8.0 0.0 0.00 0.00 0.00 54 1016.0
20260905143335 23 230 8.0 0.0 0.00 0.00 0.00 54 1016.0
20260905141833 25 4.8 0.0 0.00 0.00 0.00 51 1016.0
20260905140332 25 4.8 0.0 0.00 0.00 0.00 51 1016.0
20260905134952 22 170 4.8 0.0 0.00 0.00 0.00 57 1016.0
20260905133336 22 170 4.8 0.0 0.00 0.00 0.00 57 1016.0
20260905131838 22 10 4.8 0.0 0.00 0.00 0.00 57 1016.0
20260905130357 22 10 4.8 0.0 0.00 0.00 0.00 57 1016.0
20260905124833 22 3.2 0.0 0.00 0.00 0.00 53 1016.0
20260905123336 22 3.2 0.0 0.00 0.00 0.00 53 1016.0
20260905121903 22 290 9.7 0.0 0.00 0.00 0.00 57 1017.0
20260905120336 22 290 9.7 0.0 0.00 0.00 0.00 57 1017.0
20260905114836 23 280 16.1 0.0 0.00 0.00 0.00 54 1016.0
20260905113335 23 280 16.1 0.0 0.00 0.00 0.00 54 1016.0
20260905111854 25 270 11.3 0.0 0.00 0.00 0.00 47 1016.0
20260905110335 25 270 11.3 0.0 0.00 0.00 0.00 47 1016.0
20260905104836 26 280 20.9 0.0 0.00 0.00 0.00 45 1016.0
20260905103336 26 280 20.9 0.0 0.00 0.00 0.00 45 1016.0
20260905101835 27 280 20.9 0.0 0.00 0.00 0.00 42 1015.0
20260905100336 27 280 20.9 0.0 0.00 0.00 0.00 42 1015.0
20260905094954 27 3.2 0.0 0.00 0.00 0.00 40 1015.0
20260905093335 27 3.2 0.0 0.00 0.00 0.00 40 1015.0
20260905091836 27 3.2 0.0 0.00 0.00 0.00 42 1015.0
20260905090335 27 3.2 0.0 0.00 0.00 0.00 42 1015.0
20260905084835 27 4.8 0.0 0.00 0.00 0.00 42 1015.0
20260905083335 27 4.8 0.0 0.00 0.00 0.00 42 1015.0
20260905081835 27 4.8 0.0 0.00 0.00 0.00 42 1015.0
20260905080336 27 4.8 0.0 0.00 0.00 0.00 42 1015.0
20260905074835 26 120 11.3 0.0 0.00 0.00 0.00 42 1015.0
20260905073344 26 120 11.3 0.0 0.00 0.00 0.00 42 1015.0
20260905071836 25 110 11.3 0.0 0.00 0.00 0.00 51 1015.0
20260905070335 25 110 11.3 0.0 0.00 0.00 0.00 51 1015.0
20260905064836 22 100 14.5 0.0 0.00 0.00 0.00 53 1015.0
20260905063336 22 100 14.5 0.0 0.00 0.00 0.00 53 1015.0
20260905061836 22 80 11.3 0.0 0.00 0.00 0.00 57 1015.0
20260905060336 22 80 11.3 0.0 0.00 0.00 0.00 57 1015.0
20260905054836 21 80 9.7 0.0 0.00 0.00 0.00 60 1015.0
20260905053336 21 80 9.7 0.0 0.00 0.00 0.00 60 1015.0
20260905051835 18 80 9.7 0.0 0.00 0.00 0.00 64 1015.0
20260905050336 18 80 9.7 0.0 0.00 0.00 0.00 64 1015.0
20260905044836 17 70 11.3 0.0 0.00 0.00 0.00 73 1015.0
20260905043335 17 70 11.3 0.0 0.00 0.00 0.00 73 1015.0
20260905041835 17 80 12.9 0.0 0.00 0.00 0.00 73 1015.0
20260905040335 17 80 12.9 0.0 0.00 0.00 0.00 73 1015.0
20260905034836 17 80 12.9 0.0 0.00 0.00 0.00 73 1015.0
20260905033335 17 80 12.9 0.0 0.00 0.00 0.00 73 1015.0
20260905031836 17 90 12.9 0.0 0.00 0.00 0.00 73 1015.0
20260905030335 17 90 12.9 0.0 0.00 0.00 0.00 73 1015.0
20260905024848 16 90 14.5 0.0 0.00 0.00 0.00 77 1015.0